Location: Diebersbach
(48.5163°N, 8.0558°E)
Time: 20:52:34
(UTC+00:00)

USA 229 - Pass Details

Date: 24 October 2021
Orbit: 946 x 1266 km, 63.4° (Epoch: 25 November)

Event Time Altitude Azimuth Distance (km) Brightness Sun altitude
Rises 19:15:31 0° 236° (SW) 3,655 7.0 -29.3°
Reaches altitude 10° 19:18:04 10° 241° (WSW) 2,738 6.3 -29.7°
Maximum altitude 19:24:23 57° 319° (NW) 1,200 4.1 -30.7°
Enters shadow 19:26:59 37° 19° (NNE) 1,593 4.5 -31.1°
